EW9429 Weather Reports


time (UTC)temp
F
wind
direction
speed
knots
gust
knots
rain 1hr
in
rain 24hr
in
rain mn
in
humidity
%
barometer
mb
20260507160537 61 203 2.6 7.8 0.00 0.11 0.03 45 1006.8
20260507155537 61 135 0.9 5.2 0.01 0.11 0.03 51 1006.9
20260507154537 60 270 0.9 6.1 0.01 0.11 0.03 52 1006.8
20260507153557 60 203 2.6 6.1 0.01 0.11 0.03 52 1006.9
20260507152537 59 248 2.6 6.1 0.01 0.11 0.03 53 1006.9
20260507151537 59 248 2.6 7.8 0.01 0.11 0.03 55 1007.2
20260507150537 58 225 3.5 11.3 0.01 0.11 0.03 58 1007.3
20260507145537 58 180 2.6 8.7 0.00 0.10 0.02 61 1007.3
20260507144537 58 180 3.5 9.6 0.00 0.10 0.02 59 1007.5
20260507143537 58 180 0.9 3.5 0.00 0.10 0.02 67 1007.4
20260507142537 57 0.0 2.6 0.00 0.10 0.02 67 1007.5
20260507141537 57 0.0 2.6 0.00 0.10 0.02 67 1007.5
20260507140537 57 158 1.7 8.7 0.00 0.10 0.02 67 1007.5
20260507135537 57 180 1.7 6.1 0.00 0.10 0.02 68 1007.5
20260507134537 56 0.0 2.6 0.00 0.10 0.02 70 1007.3
20260507133537 56 203 0.9 4.3 0.00 0.10 0.02 73 1007.3
20260507132537 55 203 0.9 3.5 0.00 0.10 0.02 73 1007.4
20260507131557 55 225 1.7 5.2 0.00 0.10 0.02 74 1007.6
20260507130537 54 203 1.7 4.3 0.00 0.10 0.02 75 1007.6
20260507125537 53 248 1.7 5.2 0.00 0.10 0.02 78 1007.6
20260507124537 52 0.0 1.7 0.00 0.10 0.02 82 1007.8
20260507123537 51 270 0.9 7.8 0.00 0.10 0.02 85 1007.8
20260507122537 51 158 1.7 6.1 0.00 0.10 0.02 89 1007.7
20260507121537 50 180 1.7 6.1 0.00 0.10 0.02 92 1007.8
20260507120537 50 180 0.9 3.5 0.00 0.10 0.02 95 1007.8
20260507115537 50 0.0 0.0 0.00 0.10 0.02 95 1007.7
20260507114537 50 0.0 0.0 0.00 0.10 0.02 96 1007.8
20260507113537 49 0.0 0.0 0.00 0.10 0.02 95 1007.7
20260507112537 49 0.0 0.0 0.00 0.10 0.02 95 1007.6
20260507111537 49 0.0 0.0 0.00 0.10 0.02 95 1007.6
20260507110537 49 0.0 0.0 0.00 0.10 0.02 95 1007.4
20260507105537 49 0.0 0.0 0.00 0.10 0.02 95 1007.2
20260507104537 49 0.0 0.0 0.00 0.10 0.02 94 1007.4
20260507103558 49 0.0 0.0 0.00 0.10 0.02 94 1007.4
20260507102537 49 0.0 0.0 0.01 0.10 0.02 94 1007.0
20260507101537 49 0.0 0.0 0.01 0.10 0.02 94 1006.8
20260507100538 49 0.0 0.0 0.01 0.10 0.02 94 1006.7
20260507095537 49 0.0 0.0 0.01 0.10 0.02 94 1006.9
20260507094537 49 0.0 0.0 0.01 0.10 0.02 93 1006.5
20260507093537 49 0.0 0.0 0.01 0.10 0.02 93 1006.7
20260507092539 49 0.0 0.0 0.00 0.09 0.01 92 1007.0
20260507091539 50 0.0 0.0 0.00 0.09 0.01 92 1007.0
20260507090539 50 0.0 0.0 0.00 0.09 0.01 92 1006.9
20260507085539 50 0.0 0.0 0.00 0.09 0.01 91 1007.3
20260507084539 50 0.0 1.7 0.00 0.09 0.01 91 1007.3
20260507083539 50 0.0 1.7 0.01 0.09 0.01 91 1007.0
20260507082537 50 0.0 0.0 0.01 0.09 0.01 90 1007.2
20260507081539 50 0.0 1.7 0.01 0.09 0.01 90 1006.7
20260507080539 51 0.0 0.0 0.01 0.09 0.01 89 1006.5
20260507075539 51 0.0 0.0 0.01 0.09 0.01 89 1006.7
20260507074539 52 0.0 0.0 0.01 0.09 0.01 89 1007.1
20260507073539 52 0.0 0.0 0.00 0.08 0.00 87 1006.7
20260507072537 52 180 0.9 3.5 0.00 0.08 0.00 87 1006.9
20260507071539 52 0.0 3.5 0.00 0.08 0.00 88 1006.4
20260507071039 52 0.0 1.7 0.00 0.08 0.00 88 1006.2
20260507065539 53 0.0 5.2 0.00 0.08 0.00 88 1006.2
20260507064539 53 0.0 3.5 0.00 0.08 0.00 89 1006.0
20260507063539 53 0.0 0.0 0.00 0.08 0.00 89 1006.0
20260507062539 53 0.0 2.6 0.00 0.08 0.00 90 1006.2
20260507061539 54 180 0.9 3.5 0.00 0.08 0.00 90 1006.2
20260507060539 54 0.0 0.0 0.00 0.08 0.00 91 1006.2
20260507055539 55 158 0.9 6.1 0.00 0.08 0.00 91 1006.0
20260507054539 55 0.0 0.0 0.00 0.08 0.00 92 1006.4
20260507053539 55 0.0 4.3 0.00 0.08 0.00 93 1006.4
20260507052539 56 180 0.9 2.6 0.00 0.08 0.00 94 1006.5
20260507051559 56 0.0 1.7 0.00 0.08 0.00 94 1006.5
20260507050600 56 0.0 0.0 0.00 0.08 0.00 94 1006.4
20260507045539 57 0.0 1.7 0.00 0.08 0.00 94 1006.3
20260507044539 57 0.0 3.5 0.00 0.08 0.00 95 1006.4
20260507043539 57 0.0 2.6 0.00 0.08 0.00 95 1006.4
20260507042538 57 180 0.9 4.3 0.00 0.08 0.00 95 1006.2
20260507041539 58 0.0 0.0 0.00 0.08 0.00 96 1006.4
20260507040538 58 0.0 2.6 0.01 0.08 0.00 96 1006.3
20260507035537 58 0.0 3.5 0.01 0.08 0.08 96 1006.4
20260507034537 59 135 0.9 5.2 0.01 0.08 0.08 96 1006.4
20260507033537 59 0.0 0.0 0.01 0.08 0.08 97 1006.1
20260507032537 60 0.0 3.5 0.01 0.08 0.08 97 1005.9
20260507031537 60 0.0 2.6 0.01 0.08 0.08 97 1005.8
20260507030537 60 0.0 0.0 0.00 0.07 0.07 97 1005.7
20260507025537 60 0.0 0.9 0.00 0.07 0.07 97 1005.5
20260507024538 60 0.0 0.0 0.00 0.07 0.07 97 1005.1
20260507023537 60 0.0 0.0 0.00 0.07 0.07 97 1005.2
20260507022537 60 0.0 1.7 0.00 0.07 0.07 97 1005.3
20260507021537 60 0.0 2.6 0.00 0.07 0.07 97 1005.3
20260507020537 60 0.0 0.0 0.00 0.07 0.07 97 1005.2
20260507015537 60 0.0 0.0 0.00 0.07 0.07 97 1005.2
20260507014558 60 0.0 1.7 0.00 0.07 0.07 97 1005.2
20260507013537 60 0.0 0.0 0.00 0.07 0.07 96 1005.1
20260507012537 60 0.0 0.9 0.00 0.07 0.07 96 1005.2
20260507011558 60 0.0 2.6 0.00 0.07 0.07 96 1005.2
20260507010537 60 0.0 2.6 0.00 0.07 0.07 96 1005.3
20260507005537 60 0.0 0.9 0.00 0.07 0.07 96 1005.3
20260507004558 60 0.0 0.9 0.00 0.07 0.07 96 1005.4
20260507003537 60 0.0 2.6 0.00 0.07 0.07 96 1005.3
20260507002537 60 0.0 0.0 0.00 0.07 0.07 96 1005.2
20260507001537 60 0.0 1.7 0.00 0.07 0.07 96 1005.2
20260507000537 60 0.0 0.0 0.01 0.07 0.07 96 1005.1
20260506235537 60 0.0 0.0 0.02 0.07 0.07 96 1004.9
20260506234557 60 0.0 0.0 0.03 0.07 0.07 96 1004.9
20260506233537 60 0.0 0.0 0.03 0.07 0.07 96 1004.9
20260506232537 60 0.0 0.0 0.03 0.07 0.07 96 1004.9
20260506231537 60 0.0 0.0 0.03 0.07 0.07 95 1004.8
20260506230537 60 0.0 0.0 0.02 0.06 0.06 95 1004.9
20260506225537 61 0.0 0.0 0.01 0.05 0.05 95 1004.9
20260506224557 61 0.0 0.0 0.00 0.04 0.04 95 1005.1
20260506223537 61 0.0 1.7 0.00 0.04 0.04 95 1005.1
20260506222537 61 0.0 2.6 0.00 0.04 0.04 95 1005.1
20260506221537 61 0.0 0.0 0.00 0.04 0.04 95 1005.2
20260506220537 61 0.0 1.7 0.00 0.04 0.04 94 1005.4
20260506215537 61 0.0 0.0 0.01 0.04 0.04 94 1005.3
20260506214537 61 0.0 1.7 0.01 0.04 0.04 94 1005.3
20260506213537 61 90 0.9 1.7 0.01 0.04 0.04 94 1005.6
20260506212537 61 0.0 0.0 0.01 0.04 0.04 94 1005.6
20260506211537 61 0.0 0.0 0.01 0.04 0.04 94 1005.7
20260506210537 61 90 0.9 2.6 0.01 0.04 0.04 93 1005.8
20260506205557 61 0.0 2.6 0.01 0.03 0.03 93 1005.9
20260506204537 61 90 0.9 3.5 0.01 0.03 0.03 93 1005.9
20260506203537 61 0.0 1.7 0.01 0.03 0.03 93 1006.0
20260506202537 61 0.0 1.7 0.02 0.03 0.03 92 1006.1
20260506201617 62 90 0.9 3.5 0.03 0.03 0.03 91 1006.1
20260506200537 62 90 0.9 2.6 0.03 0.03 0.03 91 1006.1
20260506195537 63 90 0.9 3.5 0.02 0.02 0.02 90 1006.1
20260506194537 63 90 0.9 2.6 0.02 0.02 0.02 89 1005.9
20260506193634 64 0.0 0.0 0.02 0.02 0.02 88 1006.1
20260506192557 65 0.0 1.7 0.01 0.01 0.01 86 1006.0
20260506191557 65 0.0 0.0 0.00 0.00 0.00 85 1006.0
20260506190537 66 0.0 1.7 0.00 0.00 0.00 83 1006.0
20260506185537 67 113 0.9 2.6 0.00 0.00 0.00 79 1006.1
20260506184537 68 113 1.7 5.2 0.00 0.00 0.00 75 1006.2
20260506183557 69 90 1.7 8.7 0.00 0.00 0.00 72 1006.4
20260506182617 70 158 1.7 5.2 0.00 0.00 0.00 70 1006.4
20260506181537 71 158 0.9 3.5 0.00 0.00 0.00 68 1006.4
20260506180557 71 113 1.7 5.2 0.00 0.00 0.00 64 1006.4
20260506175537 72 113 3.5 8.7 0.00 0.00 0.00 62 1006.4
20260506174537 72 113 4.3 8.7 0.00 0.00 0.00 60 1006.3
20260506173537 73 113 3.5 10.4 0.00 0.00 0.00 59 1006.4
20260506172638 73 90 2.6 7.0 0.00 0.00 0.00 59 1006.3
20260506171537 73 90 2.6 7.0 0.00 0.00 0.00 59 1006.6
20260506170537 73 90 2.6 6.1 0.00 0.00 0.00 59 1006.4
20260506165537 73 90 1.7 6.1 0.00 0.00 0.00 60 1006.6
20260506164537 72 90 0.9 5.2 0.00 0.00 0.00 63 1006.7
20260506163537 71 90 0.9 3.5 0.00 0.00 0.00 63 1006.9
20260506162537 71 90 1.7 5.2 0.00 0.00 0.00 63 1007.1
20260506161537 71 90 0.9 3.5 0.00 0.00 0.00 64 1007.1